Theta_e
331 330 331 331 330 330 330 330 330 329 330 329 329 330 329 327 329 330 330 330 329 330 330 330 330 330 330 330 331 332 333 332 332 332 332 331 331 330 328 327 326 323 320 318 318 321 320 318 317 314 312 311 310 309 308 308 308 307 307 307 306 306 305 305 305 305 305 305 305 306 306 307 307 307 307 307 307 308 307 308 307 308 308 308 309
331 330 331 331 330 329 330 330 330 330 329 329 329 330 328 328 328 328 327 327 327 328 329 329 329 328 329 329 330 330 332 331 330 332 332 331 331 330 328 327 327 323 320 318 318 322 321 317 316 314 312 311 310 309 308 308 308 308 307 307 307 306 306 305 305 305 305 305 305 305 305 306 307 307 307 307 307 307 307 307 307 307 308 308 308
329 330 332 332 329 328 329 329 330 330 329 329 328 328 328 328 327 326 325 326 328 329 329 329 329 329 328 328 329 329 331 331 330 332 332 331 332 331 329 328 327 324 320 318 316 318 319 316 315 314 310 309 311 312 309 308 308 307 308 308 307 306 306 305 305 305 305 305 304 304 305 306 306 307 307 307 307 307 308 307 307 308 308 308 307
331 331 332 332 330 330 329 328 328 328 328 328 328 329 329 328 326 326 326 327 328 329 329 329 329 330 328 327 329 329 329 331 331 331 331 331 332 331 329 328 327 324 322 318 316 314 314 315 314 313 310 308 311 312 310 308 308 308 307 307 308 307 307 306 306 305 305 304 304 304 304 305 306 306 307 307 307 307 307 308 307 308 308 308 307
332 331 331 331 331 331 330 329 328 328 327 327 327 328 329 328 327 327 328 328 327 327 328 329 329 330 329 327 328 328 329 330 329 329 331 331 332 331 328 327 327 325 323 320 317 314 314 316 315 314 312 311 311 310 309 308 306 307 309 309 309 308 307 306 305 305 305 305 304 304 304 304 304 305 305 306 307 307 307 308 308 308 308 308 308
330 330 330 330 330 330 330 329 329 329 328 327 327 326 327 328 328 328 328 327 327 326 327 328 329 329 329 328 328 328 328 328 328 329 330 331 331 330 327 327 327 326 325 323 319 317 316 318 318 316 314 315 316 312 310 309 308 311 313 312 311 309 308 305 304 305 305 305 304 304 304 304 303 303 304 305 306 306 307 307 307 308 308 308 308
330 330 330 329 329 330 329 330 330 329 328 327 326 326 327 328 328 328 328 328 328 328 328 328 328 329 329 328 328 328 328 328 328 328 329 329 328 328 327 326 326 326 326 325 323 320 319 318 318 316 314 316 319 318 315 313 314 317 318 317 314 312 311 307 305 304 304 304 304 304 303 303 303 303 303 304 305 306 306 307 308 308 308 308 308
329 330 330 329 330 330 330 330 330 329 329 327 326 326 327 327 328 328 328 329 328 327 327 326 327 328 329 329 328 327 328 328 327 327 327 327 326 326 326 325 325 326 326 326 326 324 322 320 318 317 316 316 318 321 321 318 318 321 323 321 317 315 313 310 308 307 306 306 305 304 304 304 304 304 304 304 305 306 306 307 308 308 308 308 308
329 329 330 330 330 330 331 330 330 329 329 328 327 327 327 327 327 328 329 328 327 327 327 326 328 329 329 330 329 326 326 326 329 329 328 328 326 324 325 324 325 326 324 324 326 326 325 324 322 322 323 322 320 320 321 320 322 323 323 322 318 316 315 313 313 312 311 310 308 308 307 306 305 305 305 305 306 306 307 307 308 308 308 308 308
330 330 330 330 329 329 329 329 329 329 328 328 328 327 327 327 327 327 327 326 326 328 328 328 329 329 329 329 328 326 325 327 329 329 327 328 328 326 325 324 325 326 324 325 325 325 326 326 326 325 326 326 325 322 321 322 325 326 324 323 321 318 317 317 317 317 317 315 313 312 311 311 310 309 309 308 308 308 308 308 308 308 308 308 308
329 329 329 329 329 329 328 328 328 328 327 327 327 327 327 327 327 327 326 326 326 328 329 329 329 328 328 328 327 326 326 326 327 327 326 326 327 327 326 325 325 326 325 325 325 326 326 325 325 327 327 327 327 326 326 326 327 327 327 326 325 322 322 322 323 323 322 320 318 317 316 315 314 314 314 313 312 311 310 309 309 309 308 308 308
328 328 328 327 327 328 328 328 328 328 327 327 327 327 328 328 327 326 326 326 327 328 327 327 328 328 328 328 328 326 327 326 324 326 326 326 326 326 326 325 325 325 326 326 325 326 326 324 325 327 327 326 327 327 327 327 327 328 328 328 328 327 326 326 327 327 327 325 323 320 318 317 317 316 315 314 313 312 311 310 310 310 309 308 308
326 326 327 327 327 327 328 328 328 328 328 327 327 328 328 329 328 327 328 327 327 328 327 327 328 328 328 329 327 326 327 326 324 325 327 326 326 325 325 325 325 325 325 325 325 325 325 325 326 327 326 324 325 325 324 324 326 328 328 328 328 328 327 327 328 328 328 328 327 325 322 320 319 319 316 314 313 312 311 311 310 310 309 309 308
318 321 325 325 324 326 327 328 328 327 328 328 328 328 328 328 328 328 328 327 328 328 328 328 327 328 328 328 328 326 327 327 325 325 326 326 326 326 326 325 325 325 325 325 324 324 325 325 325 325 324 324 323 322 321 323 325 327 327 327 327 327 327 327 328 328 328 328 329 329 327 324 323 321 317 315 314 313 312 311 310 310 309 309 309
319 322 325 322 321 323 323 325 326 325 327 328 327 327 327 327 327 328 328 328 328 328 328 327 327 328 327 328 328 327 327 327 326 325 325 325 326 327 327 325 324 324 325 325 325 325 326 325 324 323 322 323 323 322 322 322 323 325 326 326 327 327 327 327 327 328 329 328 327 328 328 327 327 324 319 318 317 316 315 313 311 310 310 310 310
324 326 324 317 320 324 321 321 322 323 326 327 326 327 327 327 327 327 328 328 328 328 328 327 328 328 328 328 328 327 328 327 326 326 325 325 325 326 326 326 326 325 324 325 326 327 326 325 324 323 322 322 322 323 323 322 322 324 325 325 327 327 327 327 327 328 327 325 324 327 328 328 328 325 322 320 321 321 319 317 315 315 315 315 316
325 326 321 315 317 323 324 323 321 323 325 326 327 327 327 327 327 327 326 326 327 328 327 327 328 328 328 328 328 328 328 328 327 326 325 326 327 326 326 326 326 325 324 324 325 326 326 325 324 322 322 322 322 323 323 322 323 324 325 325 325 325 325 325 326 327 327 324 325 328 327 326 327 326 324 323 323 323 323 322 323 323 323 323 324
325 324 321 319 318 320 325 326 322 322 324 324 327 327 327 328 327 326 326 325 326 327 328 327 327 327 328 328 328 328 328 327 328 327 326 326 327 327 327 326 325 325 324 323 324 324 324 325 324 323 323 323 322 322 321 321 323 324 323 323 323 324 324 325 326 326 326 326 327 326 324 324 327 327 327 326 324 324 325 325 326 326 326 326 327
323 321 320 321 320 320 323 325 324 323 322 322 324 324 324 326 327 326 326 325 324 326 327 326 326 327 327 327 327 327 326 327 328 328 327 327 326 326 326 326 326 325 325 324 324 323 324 324 323 323 323 323 322 321 321 321 323 323 323 323 324 324 324 324 324 324 325 326 326 325 325 326 327 327 327 328 326 325 325 325 326 326 327 327 327
323 324 323 322 321 320 321 324 324 323 324 323 321 320 321 324 326 325 325 324 324 325 325 326 326 326 326 326 326 325 324 326 327 327 327 326 326 326 326 325 325 324 324 324 323 323 323 323 323 323 323 323 322 323 323 323 324 324 324 324 324 323 322 321 321 322 323 323 324 324 324 325 326 326 327 327 327 326 326 326 326 326 326 326 326
324 324 324 323 321 322 322 323 324 323 324 323 320 321 322 323 323 323 324 324 323 324 325 326 326 325 326 326 325 325 324 325 326 326 326 326 325 325 324 323 323 323 323 323 323 322 321 321 322 322 321 321 321 321 322 323 324 325 324 324 323 322 321 321 323 324 323 322 323 323 324 324 324 325 325 325 326 326 326 326 326 326 326 326 326
323 323 324 324 324 324 322 320 322 322 323 322 322 322 322 321 320 322 324 324 324 324 325 325 325 325 325 325 326 325 325 325 325 326 326 325 325 324 323 322 322 323 322 322 322 321 320 318 319 321 321 321 321 321 321 322 323 323 324 323 323 323 323 324 325 325 323 322 322 321 321 320 320 320 321 321 322 323 323 323 324 324 324 325 325
319 319 320 320 320 321 320 320 321 322 323 323 323 323 321 319 317 320 323 324 324 325 325 325 325 325 325 325 325 325 324 324 324 325 326 325 324 323 322 322 321 321 320 320 320 319 319 318 319 321 321 321 321 321 321 322 322 322 322 323 323 324 324 324 324 323 322 322 320 319 318 316 315 315 316 317 318 318 317 318 319 318 318 319 320
312 312 314 315 316 316 317 319 321 323 322 322 321 321 320 318 315 316 320 322 323 324 324 325 324 324 324 324 325 324 324 324 323 324 324 324 323 322 321 320 320 320 319 319 319 318 318 317 317 319 320 321 320 320 320 321 321 321 321 322 322 322 322 322 321 320 318 317 315 314 312 311 309 309 309 310 311 311 312 312 313 313 313 312 313
310 310 313 315 315 314 312 313 317 320 321 320 319 319 318 317 313 312 314 317 320 321 322 323 324 323 323 323 324 324 324 324 323 324 323 323 323 322 320 319 318 318 318 318 318 317 318 317 317 318 319 320 319 319 319 318 318 318 318 318 317 316 316 315 314 312 310 309 308 307 306 305 304 304 304 304 304 305 305 305 306 307 307 308 308
310 311 313 311 310 309 307 308 311 314 317 318 318 318 317 313 310 308 308 309 311 314 318 321 322 322 322 322 322 322 323 324 324 323 323 322 322 321 319 319 318 317 316 315 315 315 316 317 317 317 318 316 315 314 313 312 311 311 310 310 309 309 308 308 307 307 307 306 306 306 306 306 305 305 304 304 304 303 303 303 303 303 303 304 304
310 310 310 307 306 306 306 306 307 309 312 315 315 315 313 308 306 306 306 306 306 309 315 319 319 319 319 319 319 320 321 322 323 323 322 322 322 320 319 319 318 317 315 313 313 313 314 315 315 315 313 311 310 309 308 308 307 307 307 308 308 308 309 309 309 309 309 309 309 309 309 308 308 307 307 306 306 305 305 304 303 303 303 303 303
308 308 306 306 306 305 306 306 306 307 309 311 310 309 308 306 306 306 306 306 306 307 311 314 315 316 316 316 316 317 319 321 321 321 321 320 320 320 319 319 318 317 314 312 312 311 312 312 312 312 310 308 307 307 307 308 308 309 309 309 309 309 309 310 309 310 310 310 310 310 309 309 309 309 308 308 308 307 307 306 305 305 304 304 303
306 306 305 305 305 305 305 305 305 306 308 308 306 305 305 305 305 305 305 306 305 305 306 308 311 313 314 312 312 313 315 319 321 321 320 320 319 319 319 318 318 316 314 312 311 310 310 310 309 309 308 307 307 307 308 308 309 310 309 309 310 310 310 310 310 310 310 310 310 310 311 310 310 310 309 309 309 308 308 307 306 306 305 304 304
305 306 304 305 305 304 305 305 304 305 306 307 305 305 305 304 305 305 304 304 304 305 304 306 309 310 310 309 308 308 309 314 318 318 318 318 319 318 318 318 317 317 316 314 312 311 309 308 308 308 307 307 307 308 308 310 311 311 311 310 310 311 311 310 310 309 309 308 309 309 310 311 311 311 311 310 310 309 309 308 308 307 306 306 305
305 305 305 305 305 305 305 305 305 305 305 305 305 305 305 305 305 305 305 306 307 307 307 308 309 309 310 311 312 311 310 310 313 315 315 315 315 316 316 317 318 317 316 315 313 311 310 308 308 307 308 308 308 308 310 311 312 311 311 309 309 308 308 308 308 308 307 306 306 306 306 306 308 309 310 310 310 310 310 309 308 308 307 307 306
305 305 305 306 306 306 306 306 306 306 306 306 306 306 307 307 306 307 309 310 310 311 312 312 311 310 310 311 313 314 313 312 312 313 314 314 314 314 314 315 317 317 316 315 313 310 310 309 308 308 308 308 308 309 310 311 310 309 309 309 308 308 308 308 308 309 308 308 306 305 304 303 304 304 306 308 309 309 310 309 309 309 308 308 307
305 305 306 306 306 307 307 307 307 307 307 308 307 308 308 309 308 309 312 312 311 312 313 313 312 312 311 310 311 312 313 313 313 313 313 313 314 314 314 314 316 316 316 315 313 310 309 309 309 309 309 309 309 310 311 310 310 309 308 309 309 308 308 309 309 309 309 309 307 306 304 303 302 302 302 303 304 305 306 307 308 308 308 308 307
305 305 306 306 307 307 308 308 308 308 309 308 309 309 309 309 309 310 312 312 310 310 312 311 310 311 311 310 309 310 311 314 315 314 314 314 313 314 314 314 315 315 314 314 314 312 311 311 310 311 311 311 311 310 311 310 310 310 309 309 310 309 309 309 309 310 309 309 308 307 306 305 303 302 301 301 301 302 302 303 304 305 306 306 306
305 308 310 308 308 308 307 308 308 308 309 309 309 309 309 309 309 309 310 310 309 309 310 312 312 310 310 309 309 309 309 312 313 313 314 315 314 314 315 315 315 315 315 315 316 316 314 313 312 311 312 312 311 311 311 311 311 310 310 310 310 309 309 309 310 310 310 309 309 308 307 306 305 304 303 302 301 300 301 301 301 302 303 303 304
304 310 314 310 310 312 310 310 309 309 309 309 309 309 309 309 309 309 309 309 309 308 310 314 314 312 311 310 309 309 308 309 310 311 313 315 315 315 316 316 316 316 317 317 316 316 315 314 312 312 313 313 312 311 311 311 311 311 311 310 311 310 310 310 310 310 310 309 309 308 307 307 306 305 304 304 303 302 301 300 300 301 301 302 302
308 314 316 312 314 317 315 315 315 313 312 310 309 310 309 309 310 309 310 311 312 311 312 315 315 315 315 314 314 313 311 310 311 313 314 316 316 316 316 317 316 316 316 317 317 316 316 315 314 313 313 313 313 312 312 312 311 312 311 311 311 311 311 311 310 310 310 309 308 308 308 307 307 306 306 305 304 303 301 300 300 300 301 301 301
314 318 318 315 317 318 317 319 319 318 318 315 314 315 313 313 314 314 315 316 316 316 317 317 316 317 317 317 318 317 315 314 314 315 315 315 316 315 315 315 316 315 315 316 316 316 316 316 316 315 314 314 314 313 312 312 311 311 311 311 311 311 311 311 310 310 309 309 308 308 308 307 307 307 306 306 305 304 302 301 301 301 300 300 300
319 320 319 317 319 319 318 320 319 319 320 319 319 320 319 319 320 318 319 319 317 318 318 317 318 318 318 318 319 318 317 316 316 316 315 314 315 315 315 315 314 314 315 316 316 316 316 316 316 315 315 314 314 313 312 312 312 311 311 311 311 311 311 310 309 309 309 309 308 308 308 308 307 307 307 306 305 303 302 301 301 301 301 301 300
320 321 319 319 320 320 319 320 319 319 320 320 320 320 321 322 321 320 320 320 319 319 320 320 320 320 320 320 320 319 319 318 317 317 316 316 316 315 314 315 314 314 315 315 315 315 316 316 315 315 315 315 314 313 313 313 313 312 312 312 312 312 311 310 309 309 309 309 309 308 308 307 307 307 307 306 305 303 302 302 301 301 301 301 301
320 321 320 320 320 320 319 319 319 319 320 320 319 319 320 322 322 320 320 321 321 320 321 321 320 319 319 319 319 319 320 320 319 318 318 318 318 316 315 315 315 315 315 315 315 315 315 316 316 315 315 314 314 314 314 313 313 313 313 312 312 311 311 310 310 310 309 309 309 308 308 308 307 307 307 306 304 302 301 302 302 301 302 301 301
320 320 320 320 320 320 320 320 319 319 320 319 318 318 320 322 321 319 320 320 319 318 318 318 319 319 318 318 318 317 318 319 320 319 318 318 318 317 317 317 317 316 316 315 315 315 315 315 315 315 315 315 314 314 314 314 313 312 312 311 311 311 310 310 310 310 309 309 308 308 308 308 307 307 306 304 302 301 302 302 303 302 302 301 301
320 320 320 320 320 320 320 320 320 320 319 318 318 319 320 321 320 319 319 320 318 317 316 316 317 318 318 317 317 316 316 317 319 319 318 318 318 318 318 317 317 317 316 316 316 315 315 315 315 315 315 315 314 314 314 313 313 312 312 311 311 310 310 310 309 309 309 309 308 308 308 308 307 306 304 303 302 302 302 302 302 302 302 301 301
320 321 321 320 320 319 320 320 320 319 318 317 317 318 318 317 317 317 318 319 318 317 317 316 316 317 317 316 316 316 315 316 318 317 317 317 318 318 317 317 317 316 316 316 316 316 316 315 315 315 315 314 314 314 314 313 313 312 312 312 311 310 309 309 308 308 309 309 308 307 307 307 305 304 303 302 303 303 302 302 302 301 301 301 301
321 321 321 321 320 319 319 320 320 320 319 318 317 317 316 315 314 316 317 318 317 316 316 316 316 316 317 316 316 315 315 315 314 312 311 312 313 314 314 315 315 316 316 316 316 316 316 316 315 315 314 314 314 313 313 313 312 312 312 311 310 309 309 308 308 308 308 308 307 306 306 305 304 303 302 303 303 303 302 302 302 301 301 301 301
320 321 321 321 320 319 319 319 320 320 319 317 316 316 315 314 315 317 317 317 316 316 316 315 315 316 316 316 315 314 314 313 310 309 310 310 309 309 310 310 311 311 312 312 312 313 314 315 315 314 313 313 313 313 313 312 312 311 310 310 309 308 308 308 307 307 307 306 305 304 304 303 302 302 302 302 302 302 302 302 301 301 300 300 300
319 319 320 320 320 319 319 318 319 318 317 317 316 316 316 315 316 317 317 316 316 315 315 316 315 316 316 315 315 315 315 312 309 311 313 310 307 306 307 307 307 306 306 306 307 308 310 312 314 314 314 313 313 312 312 311 311 310 309 308 308 307 307 307 306 306 305 304 303 303 302 302 302 302 302 302 301 301 301 301 300 300 299 300 300
318 318 319 319 318 318 318 317 317 316 317 317 316 316 316 316 316 316 315 315 315 315 315 315 315 315 315 315 315 315 314 313 310 310 310 307 307 309 309 307 304 303 304 304 305 306 309 311 312 313 313 312 312 311 310 310 309 309 308 307 307 306 306 305 304 304 303 303 302 302 301 301 301 301 301 301 301 301 300 300 299 299 299 300 300
318 317 317 317 317 318 317 317 316 316 317 317 317 317 316 315 314 313 310 312 314 315 315 315 315 315 315 314 314 314 313 312 309 306 305 304 306 310 313 311 307 306 306 304 304 305 307 310 312 312 312 311 310 310 309 309 308 307 307 306 305 304 303 302 302 301 301 301 301 301 301 301 301 300 300 300 300 299 299 299 299 299 299 299 299
317 316 315 314 315 316 315 315 315 316 317 316 317 317 315 313 311 309 308 312 315 314 314 315 315 315 314 313 312 311 310 308 306 303 303 302 302 305 311 313 312 310 308 306 305 306 307 308 310 310 310 310 310 309 309 308 307 305 304 303 302 301 301 300 299 299 300 300 300 300 300 300 299 299 299 299 299 298 298 298 298 298 298 298 298
316 315 314 313 314 315 316 316 316 316 316 314 314 314 313 310 308 306 309 313 314 313 314 314 314 314 314 311 308 306 305 304 302 302 301 301 301 302 307 311 312 311 310 308 308 308 307 307 307 306 307 307 307 307 306 305 304 302 301 300 300 300 300 299 299 299 299 299 299 299 299 299 298 298 298 298 298 298 298 298 298 298 298 298 298
Wind_Speed
11 10 8 9 9 8 8 8 9 9 7 7 8 7 6 7 7 7 9 8 7 6 6 8 7 6 7 7 8 10 13 11 10 13 12 11 10 9 8 5 2 1 2 2 2 1 1 3 2 2 5 6 7 7 6 5 4 3 2 2 2 3 3 3 3 3 4 4 4 5 5 6 6 7 7 8 8 8 9 9 9 9 10 10 10
10 10 10 10 10 9 8 7 8 8 8 8 8 8 7 7 7 7 7 6 7 6 5 6 7 7 7 6 8 11 13 13 12 12 11 12 10 8 7 5 1 1 1 1 1 2 1 2 2 1 3 4 7 7 6 5 4 3 3 2 2 1 2 3 3 2 2 3 3 3 4 4 5 6 6 7 7 7 8 8 8 8 8 9 10
10 11 10 10 10 8 8 7 8 8 9 8 6 7 8 8 7 6 6 5 6 5 5 7 7 8 9 7 10 12 13 12 12 12 11 11 9 8 6 3 1 2 2 1 1 1 1 3 2 1 3 4 5 6 5 5 4 4 3 3 2 2 1 2 2 2 2 2 2 2 3 3 4 5 5 6 6 6 7 7 7 7 8 8 9
12 12 10 8 8 7 8 8 9 9 8 7 5 6 8 9 8 6 6 6 6 7 7 7 8 10 10 9 7 8 12 11 11 11 10 11 9 7 5 2 1 1 1 1 1 0 1 3 2 1 3 4 4 4 4 5 5 5 5 4 3 2 2 1 2 2 1 1 1 2 2 2 3 3 4 4 5 5 5 5 6 7 7 7 8
11 11 9 8 7 8 9 9 9 9 8 8 7 7 9 9 7 6 5 6 8 9 9 7 8 10 9 9 4 4 11 9 9 9 8 11 10 7 6 3 2 2 1 1 1 1 0 0 0 2 2 2 3 3 3 4 4 4 4 3 2 2 2 2 2 2 2 2 1 1 1 1 1 2 2 3 3 3 3 4 5 5 6 7 7
8 8 8 7 7 7 8 9 9 9 9 9 9 9 9 9 7 6 5 6 8 9 8 7 7 7 7 7 2 4 8 3 4 5 5 7 6 6 4 5 4 2 2 2 3 3 3 3 2 2 2 3 3 3 4 4 3 2 3 2 1 0 0 1 1 1 2 2 2 1 1 0 1 1 1 1 2 2 2 2 3 4 5 5 6
6 6 7 7 6 6 7 8 8 9 9 9 9 9 10 10 8 7 6 6 7 7 7 6 6 6 6 6 4 4 11 7 4 3 2 3 3 5 5 5 5 2 3 4 4 4 3 3 2 2 3 3 3 4 4 5 5 5 5 4 3 2 2 2 2 1 0 1 2 2 2 1 1 1 1 1 0 1 1 1 2 3 3 4 5
5 6 7 7 6 5 6 6 6 7 8 8 9 8 9 10 8 7 7 5 5 6 5 6 5 4 4 4 6 4 12 9 2 4 0 2 2 6 6 5 5 5 4 3 3 3 3 3 3 3 3 3 2 3 4 4 5 5 4 4 3 3 4 4 3 3 2 1 1 1 1 2 1 1 1 1 1 1 1 1 2 2 3 3 3
5 5 6 6 5 5 5 5 6 7 7 7 7 6 8 9 7 6 5 4 5 5 5 5 5 4 4 1 3 6 7 5 1 2 3 2 1 4 5 4 5 7 6 4 2 2 3 3 4 4 3 4 4 4 4 4 6 6 5 4 4 5 4 4 5 5 4 4 3 2 2 2 2 1 1 1 1 2 2 2 2 2 2 2 2
5 4 5 6 5 5 5 4 6 6 6 6 5 5 6 7 6 4 3 4 4 4 4 4 4 4 3 1 2 3 4 3 3 3 2 2 2 3 4 6 6 6 5 5 3 1 2 2 3 3 4 5 6 6 6 5 6 7 7 5 5 6 6 6 7 7 6 6 5 4 4 4 3 2 2 2 2 3 3 2 2 2 2 2 2
5 4 3 3 3 3 3 3 5 6 5 5 4 4 5 5 5 4 3 3 3 3 3 2 2 3 2 2 0 3 3 3 2 1 2 2 2 2 3 5 7 6 5 4 3 2 1 1 1 3 5 6 6 6 6 5 4 4 5 4 4 5 7 7 8 8 8 7 6 6 6 6 5 5 4 4 4 4 4 4 4 3 3 2 2
5 5 4 3 3 1 2 3 3 4 3 4 4 4 4 5 4 4 3 2 3 3 3 2 1 2 2 2 1 2 2 2 1 1 2 2 3 4 3 4 4 5 6 5 3 2 2 2 2 3 4 4 4 4 4 3 2 2 1 1 1 1 2 2 3 4 5 6 7 7 7 8 8 8 7 7 6 5 5 5 5 5 4 3 3
5 5 4 4 4 4 3 2 2 3 2 3 4 4 3 3 3 3 3 4 4 3 3 2 0 1 3 2 1 2 2 2 3 2 2 2 2 4 4 4 4 4 5 5 4 3 3 4 3 2 2 1 1 1 3 3 1 2 3 3 3 3 3 3 2 2 2 3 4 6 8 8 9 9 9 7 6 6 5 5 5 5 4 4 4
5 4 4 3 3 4 4 3 3 3 2 2 2 2 2 2 2 3 4 4 4 3 3 2 1 1 2 3 2 3 2 2 3 3 3 2 2 4 6 4 4 4 4 5 4 3 4 6 4 2 2 3 4 4 3 3 3 3 3 2 3 3 3 3 3 3 3 3 3 4 5 6 7 8 8 7 6 6 5 5 4 4 4 4 4
7 6 3 2 4 3 3 3 2 3 3 2 2 3 2 1 1 2 3 4 4 3 2 2 2 2 2 2 3 4 3 3 3 4 5 4 3 5 7 5 3 4 4 4 4 4 4 4 2 1 1 2 2 3 4 5 6 5 5 4 4 4 3 3 4 4 3 4 4 3 4 4 4 5 5 5 6 6 5 4 4 5 5 5 5
7 5 1 2 4 4 4 4 3 2 2 2 3 4 3 3 4 2 2 2 2 2 2 1 3 4 4 3 3 3 3 4 5 4 4 5 5 4 6 6 5 5 5 4 4 4 3 2 2 1 1 1 2 5 6 6 7 7 6 5 5 4 4 4 5 4 3 3 4 4 4 4 4 4 3 4 4 4 4 4 5 5 5 6 6
7 4 2 3 5 6 6 5 3 3 3 2 2 4 4 4 5 4 3 1 1 1 1 1 3 3 4 4 3 2 3 5 6 5 4 5 7 7 7 7 6 6 6 5 4 4 4 4 5 4 3 2 4 6 6 4 5 6 4 4 4 3 3 3 4 4 2 3 6 6 5 6 5 5 4 3 3 4 4 4 5 5 5 5 6
6 4 5 5 5 9 8 3 3 4 4 3 4 6 5 3 4 4 3 2 2 2 1 2 4 3 3 4 3 3 5 6 6 7 7 7 9 9 9 10 9 8 7 6 5 5 6 7 7 6 5 4 5 5 4 3 3 3 3 2 1 1 2 2 2 2 1 4 6 5 6 7 7 7 6 5 4 5 5 5 5 5 5 5 6
5 4 5 6 6 8 10 8 7 6 5 4 5 7 5 4 5 5 4 4 4 3 2 3 3 3 3 3 3 5 6 6 7 7 9 9 9 8 9 10 11 10 10 10 10 9 9 10 10 9 7 6 6 4 3 2 2 2 2 1 1 2 2 3 3 3 2 0 1 1 3 6 8 10 8 7 8 7 7 7 7 8 8 8 8
6 6 5 5 5 6 10 13 9 5 5 4 3 6 6 6 6 6 5 5 5 4 4 5 3 4 4 2 2 5 6 6 8 8 9 12 12 10 11 12 11 11 13 14 13 12 11 10 9 9 9 7 6 5 4 4 4 4 3 4 4 4 4 5 5 6 6 6 5 4 2 2 5 8 9 9 9 8 8 9 10 10 10 10 10
7 7 7 6 6 5 9 13 12 8 4 3 4 7 8 7 7 8 8 7 6 5 5 7 6 6 7 6 4 5 7 8 9 9 12 15 14 13 16 17 16 15 16 16 15 13 11 10 10 10 9 9 7 6 6 5 5 5 5 4 3 4 4 5 6 7 8 9 7 6 6 5 4 3 3 5 6 7 8 9 9 9 10 10 10
8 9 10 9 6 4 5 9 12 11 7 6 8 8 7 9 9 10 10 9 9 8 7 7 7 7 7 7 6 5 6 7 8 10 13 14 15 15 16 18 21 19 16 14 13 12 10 10 12 13 12 11 11 9 8 8 7 7 6 6 6 6 6 6 7 8 9 9 8 7 8 8 7 7 5 3 1 2 3 4 5 6 6 7 8
6 8 9 9 9 6 6 9 11 11 10 9 8 7 7 9 10 11 12 11 11 10 10 9 8 9 9 8 7 6 6 7 7 10 12 14 17 19 17 17 20 18 15 15 15 14 11 10 11 14 14 13 13 12 10 10 10 10 10 9 9 8 7 7 7 8 8 7 6 6 6 6 6 6 5 4 2 1 2 3 4 5 5 5 6
4 5 7 7 6 6 8 10 11 12 13 11 9 8 7 9 9 10 11 12 11 12 15 14 12 12 13 12 10 9 10 10 10 12 13 15 19 20 18 17 18 16 14 15 15 15 15 13 11 12 14 14 13 12 12 11 10 11 10 9 9 8 8 7 7 7 7 6 6 6 6 7 7 6 5 5 5 4 5 5 6 6 7 8 8
4 6 8 8 9 8 8 9 10 12 13 13 10 8 8 9 9 9 9 10 10 12 15 17 16 15 14 14 13 13 13 13 14 15 15 16 18 18 17 16 18 17 14 14 15 15 15 13 10 9 11 13 12 12 11 10 10 10 9 8 8 7 6 6 6 6 6 6 6 6 7 7 8 8 8 7 8 7 7 7 7 7 7 8 9
6 8 7 8 8 8 8 9 9 10 12 14 13 11 9 10 10 10 11 10 9 10 14 17 18 16 14 15 15 15 14 13 14 16 17 16 16 16 16 16 17 17 16 15 14 13 13 10 7 5 8 10 10 10 10 9 9 8 8 7 7 6 6 6 6 6 7 7 7 7 7 8 8 8 8 8 8 9 8 8 7 7 7 8 8
7 7 6 6 7 7 7 9 10 11 11 12 13 12 10 11 13 13 13 13 12 12 14 17 18 16 14 15 16 16 14 12 12 14 16 16 16 15 16 16 16 16 16 16 13 12 11 8 5 3 6 8 8 8 8 8 8 7 6 7 7 7 7 7 7 7 7 7 7 8 8 8 8 8 8 8 8 8 8 8 8 8 8 8 9
7 6 5 5 5 5 6 7 8 9 9 9 10 10 10 11 12 12 13 13 13 14 15 16 18 16 14 13 16 17 16 15 15 14 13 13 13 12 11 13 16 17 17 16 13 11 10 8 6 4 5 7 6 6 7 8 7 5 6 8 8 7 7 7 7 7 7 7 8 8 8 8 8 9 9 8 8 8 9 9 9 9 9 9 9
7 6 5 6 5 5 6 6 7 8 8 8 9 9 10 10 10 11 12 12 12 13 14 15 16 15 13 13 14 15 14 15 17 16 14 12 9 8 7 8 11 15 19 18 15 13 9 6 5 3 4 6 7 6 7 8 8 8 8 8 7 7 8 8 7 8 8 9 9 9 8 9 9 9 9 9 9 9 9 9 10 10 10 10 10
7 6 6 6 6 6 7 7 8 8 9 9 10 11 11 12 13 13 13 13 13 14 13 15 16 16 15 14 14 14 13 15 17 16 15 11 7 6 6 6 6 9 18 19 15 12 10 8 5 3 5 6 6 5 5 7 9 9 7 7 7 7 7 7 8 9 10 11 11 11 10 10 10 10 10 10 10 10 10 10 10 10 10 11 11
9 8 7 7 7 7 8 8 8 8 9 10 11 12 12 12 13 14 14 14 14 15 14 14 15 15 16 16 16 15 14 14 15 14 13 11 8 5 4 7 9 8 16 18 15 12 10 9 8 6 5 4 2 3 5 7 7 7 6 9 10 8 7 9 10 12 14 15 15 14 13 12 11 11 11 11 11 12 12 11 11 11 11 11 11
10 9 8 7 7 8 8 8 8 8 9 10 10 11 11 11 12 13 13 11 12 14 13 12 12 12 13 14 15 14 13 13 13 12 13 12 10 7 5 8 10 9 11 14 14 14 9 7 9 8 6 3 3 4 6 9 8 5 6 11 13 9 9 11 12 14 16 18 18 17 16 15 14 13 12 12 12 13 13 13 13 13 13 13 13
12 11 10 8 8 8 8 8 8 8 9 9 9 9 9 10 10 11 10 8 9 10 10 10 10 10 9 9 10 11 11 12 10 9 9 8 9 9 8 8 9 9 6 7 9 11 9 8 8 5 6 6 3 1 6 10 10 6 5 11 13 10 10 12 13 15 17 19 20 19 18 18 18 17 16 16 15 15 14 14 14 14 14 14 14
14 12 11 10 9 9 9 9 8 8 8 8 8 7 7 7 7 8 7 5 5 6 6 6 6 6 5 4 6 7 8 11 11 8 6 7 9 10 10 10 10 8 4 3 5 7 8 8 7 5 7 6 5 3 5 9 12 6 1 7 10 9 11 12 14 16 18 20 21 19 18 19 18 18 19 19 18 18 17 17 17 16 16 15 15
15 13 11 12 11 10 10 9 9 9 9 8 8 7 6 6 5 5 4 3 3 3 3 4 2 2 2 1 2 3 5 8 9 7 9 10 8 9 10 10 11 12 9 5 5 6 6 6 6 7 4 3 4 1 5 8 11 6 1 3 6 4 7 12 15 17 18 21 23 22 21 20 19 18 20 21 20 19 19 19 18 18 17 17 17
15 13 11 11 11 10 10 10 9 10 9 9 8 7 7 6 5 5 4 3 2 3 2 3 2 3 2 3 3 2 3 5 5 5 7 8 5 5 8 6 7 10 12 9 6 4 5 6 6 7 3 1 4 1 4 3 6 6 2 4 6 3 5 9 14 16 18 22 24 24 25 25 23 22 24 26 25 24 22 20 18 17 16 17 17
13 12 11 11 11 10 10 9 9 9 9 9 9 8 8 7 6 6 6 5 5 5 4 5 5 4 3 3 3 3 4 4 3 5 6 7 7 6 7 5 6 7 8 8 7 5 6 4 3 5 3 1 1 1 1 1 2 3 2 1 1 3 4 6 10 15 18 21 22 25 27 27 26 27 29 31 31 31 29 24 19 17 16 16 17
12 11 11 11 11 11 10 10 9 8 8 8 7 8 8 7 7 7 7 7 6 5 6 6 5 5 6 4 5 6 4 3 5 6 7 8 9 9 9 7 8 6 4 6 5 4 6 5 1 3 3 3 3 2 1 4 6 4 5 6 6 8 7 8 11 13 15 18 20 23 26 27 27 29 32 34 34 34 31 27 25 23 21 19 17
12 13 13 12 12 11 10 9 9 8 7 8 8 9 8 7 7 8 8 9 7 6 7 6 5 6 8 6 7 8 5 5 7 8 7 7 7 8 8 8 8 6 3 3 4 4 7 5 1 2 3 4 4 4 5 7 7 6 7 8 8 9 10 13 16 15 13 14 16 19 22 24 26 29 32 35 36 34 30 27 27 27 26 24 19
12 14 13 12 12 13 11 10 10 10 11 13 13 11 10 10 10 10 10 10 9 9 9 8 7 9 8 8 9 8 6 6 8 8 7 7 7 7 9 9 10 10 8 5 5 5 5 4 3 4 5 5 6 7 9 8 7 8 10 11 13 15 16 18 21 19 14 12 14 17 20 23 26 30 34 37 36 31 27 27 27 27 27 26 25
13 14 13 12 12 13 12 12 14 14 16 17 14 10 9 11 11 11 11 12 11 10 10 11 12 12 11 12 11 9 8 9 9 8 7 6 6 8 10 10 11 12 10 6 5 4 3 4 4 5 6 6 7 9 8 7 9 11 13 16 18 20 21 23 23 18 13 15 18 21 23 26 30 34 36 36 33 28 25 24 25 26 27 28 29
16 16 15 15 14 14 15 16 18 18 17 16 15 12 12 12 13 13 14 15 14 12 13 15 16 15 15 15 14 12 11 11 10 9 9 7 7 9 10 10 10 9 8 5 6 5 6 7 5 4 6 7 7 8 8 7 8 10 13 16 18 19 21 23 21 17 16 18 21 24 29 32 34 36 36 34 30 24 21 21 23 25 27 29 30
18 18 18 18 17 18 19 19 19 18 17 16 15 15 15 14 14 15 17 17 17 17 17 17 18 18 17 17 17 14 12 11 11 11 10 8 8 9 10 10 10 8 7 6 6 7 9 10 8 7 8 9 9 9 11 12 11 10 13 15 17 19 20 20 19 19 20 22 23 28 34 36 35 35 34 31 26 20 17 19 22 24 26 27 29
19 19 20 21 21 21 22 21 20 19 17 17 17 18 19 18 16 16 18 20 19 19 18 17 17 17 15 14 16 14 11 9 9 9 8 7 8 10 9 9 10 10 8 7 7 8 10 11 11 10 8 9 11 12 14 16 16 16 17 19 20 21 21 20 21 22 24 26 28 32 36 36 34 33 31 29 25 21 21 22 22 22 24 25 27
22 23 23 23 23 23 23 22 20 17 15 16 17 18 19 19 17 16 19 21 19 17 16 14 11 12 10 9 11 11 9 8 7 7 6 6 6 7 8 9 10 10 9 9 9 10 11 13 14 13 12 12 14 16 16 17 18 19 21 22 22 23 22 22 24 26 27 29 30 31 33 32 31 29 29 28 26 25 24 22 22 23 24 25 27
21 23 24 24 24 24 24 22 19 17 16 17 17 17 17 17 17 16 17 17 13 8 7 5 4 6 7 6 7 7 7 7 7 6 5 5 5 5 6 7 8 9 10 10 11 11 13 14 15 16 18 19 19 20 19 19 20 21 22 22 23 23 24 25 27 28 29 27 25 26 29 28 26 25 25 25 25 25 24 23 25 26 26 25 26
15 17 19 21 22 21 21 21 21 20 20 19 19 19 19 17 15 13 12 10 7 6 6 5 6 8 8 7 5 5 6 7 6 6 5 5 5 5 6 7 8 9 9 11 12 12 13 13 15 17 19 20 21 21 20 20 21 22 22 23 23 24 26 28 28 28 26 23 20 22 26 25 23 23 24 26 26 27 26 27 29 27 23 21 21
12 14 14 16 17 18 19 21 21 21 19 18 19 19 17 15 13 11 10 9 9 7 6 7 8 8 9 8 7 8 8 7 5 5 6 6 5 6 8 10 10 10 10 11 11 12 12 13 14 15 17 18 18 19 19 20 22 22 22 23 24 25 27 28 28 27 24 22 20 21 25 26 24 25 27 28 28 27 27 26 26 24 20 19 21
9 11 11 12 13 15 17 18 19 18 17 16 16 16 14 13 12 12 11 10 8 7 9 10 11 11 12 13 12 12 10 8 6 5 5 6 6 7 8 10 12 11 10 10 10 11 12 13 14 15 16 18 18 19 19 21 22 23 24 25 25 25 25 25 26 25 23 21 20 20 22 24 24 24 25 25 25 25 25 24 22 21 22 24 24
7 8 8 9 10 11 12 13 15 15 15 14 14 14 15 14 14 13 12 10 9 11 13 14 14 14 13 14 14 12 10 7 7 6 6 6 6 7 8 8 10 12 12 11 11 11 11 12 13 15 16 18 18 19 21 22 23 23 23 22 22 22 21 22 23 21 18 16 14 15 19 22 23 24 25 26 26 25 23 20 19 18 19 21 21
5 6 7 7 7 8 9 10 12 13 12 11 13 15 15 15 15 15 14 12 11 14 14 14 15 15 14 14 13 11 10 8 7 7 7 7 7 8 8 9 10 14 15 14 14 15 14 13 13 14 16 18 19 21 21 21 19 18 18 18 19 20 20 20 20 18 16 15 14 16 20 23 25 25 24 25 27 27 25 23 22 21 20 20 22
Wind_Direction
204 207 214 219 219 219 224 223 226 234 229 220 231 245 237 238 249 261 271 272 279 274 231 211 203 218 241 235 226 226 220 208 220 233 225 228 238 245 255 268 297 355 1 358 23 82 280 294 316 223 191 189 196 194 195 192 183 181 157 133 117 109 111 103 98 92 89 89 87 89 88 86 81 76 72 69 68 67 67 64 61 60 58 55 54
211 215 217 221 224 227 230 224 227 235 232 228 234 240 236 238 248 253 258 270 284 292 281 234 197 191 226 244 232 238 238 216 211 222 223 227 228 232 249 260 286 66 87 39 73 137 220 302 321 258 204 188 197 196 198 202 198 195 195 190 169 146 134 128 128 123 113 106 101 97 93 91 88 83 77 71 67 64 64 63 60 58 56 54 54
219 219 213 223 233 232 232 231 229 228 234 245 239 236 240 236 242 244 241 253 259 260 260 241 216 196 198 222 235 239 244 224 209 216 221 226 223 219 228 230 202 87 106 107 76 135 267 308 326 253 203 177 190 197 194 197 201 204 206 215 215 213 194 168 157 152 150 141 130 121 112 105 96 88 82 75 67 61 58 59 58 55 54 53 55
213 215 215 225 235 229 226 233 237 235 241 253 240 230 233 231 236 239 231 232 236 242 243 229 221 212 197 205 221 234 244 229 210 216 215 218 219 200 188 176 179 124 104 120 71 46 302 308 333 162 178 169 181 194 191 190 197 205 211 222 233 243 244 230 208 198 198 187 168 152 137 121 107 95 86 79 71 62 56 54 55 52 49 50 52
214 221 222 216 218 217 216 222 230 237 243 243 237 233 228 230 244 245 231 223 227 232 235 231 219 212 202 201 198 259 257 236 211 217 203 202 201 164 146 150 177 188 153 120 111 88 76 272 63 113 142 151 156 158 166 175 186 202 210 226 248 264 269 264 239 224 225 229 223 204 145 109 99 97 91 86 78 69 59 52 50 46 40 40 42
211 221 222 206 205 210 208 211 218 227 233 229 228 234 233 236 242 236 231 225 224 223 227 238 229 217 208 203 211 325 297 275 181 204 187 169 164 145 153 184 180 167 167 138 129 130 135 156 132 93 94 111 134 125 123 133 136 135 135 143 141 99 195 212 219 221 225 237 251 263 289 5 23 63 89 92 92 77 62 49 44 44 37 33 31
201 203 206 205 203 206 210 210 215 220 221 219 222 228 226 228 233 231 233 225 220 224 230 236 239 236 217 209 224 344 350 358 89 90 207 171 153 174 197 210 195 178 169 142 132 131 126 134 105 77 79 94 129 125 113 110 109 113 115 115 105 101 114 118 116 106 177 247 259 271 283 282 291 306 343 9 40 28 31 31 28 32 33 31 26
190 187 186 194 193 196 208 206 207 212 214 215 220 221 213 217 226 228 231 232 227 231 236 237 240 232 207 221 239 288 354 350 34 45 88 196 188 184 195 219 215 209 194 153 125 114 103 108 92 83 78 77 105 123 127 110 100 107 120 118 91 93 104 99 95 83 75 53 344 317 318 311 301 293 311 328 323 328 346 9 7 8 18 26 23
171 173 166 175 182 187 196 203 205 204 206 212 214 212 208 213 225 233 238 244 244 240 243 246 240 218 197 225 264 262 334 345 252 47 93 126 74 158 171 194 206 212 215 214 186 86 79 92 87 90 87 77 70 80 112 115 96 87 99 115 84 76 91 90 82 70 65 63 55 45 34 22 6 348 314 311 308 316 328 343 346 338 343 1 7
150 159 161 170 178 190 196 196 200 199 198 202 207 207 205 213 227 241 243 242 253 253 253 248 219 203 213 242 323 300 331 28 61 40 78 135 114 138 152 163 181 196 204 202 189 127 77 70 75 97 87 76 72 76 92 99 90 74 68 83 80 73 80 79 76 69 62 60 57 50 42 37 30 24 4 345 331 324 320 317 316 308 309 322 341
121 128 141 162 170 205 217 183 187 196 192 196 206 203 204 216 229 231 226 235 251 249 243 240 210 194 204 237 303 28 30 44 40 343 262 211 179 177 171 171 181 188 192 193 182 175 166 36 77 122 102 91 92 100 105 95 93 77 53 66 80 77 80 78 69 63 59 55 52 45 35 27 22 19 9 357 346 334 323 317 313 311 313 320 338
111 111 111 118 128 157 195 184 196 195 184 197 208 202 200 210 217 217 216 230 237 235 228 228 252 188 164 195 242 44 65 73 73 215 246 237 191 181 174 168 172 180 187 192 194 201 222 273 216 145 110 97 105 112 100 74 93 135 142 151 153 112 107 95 52 41 45 45 45 40 30 22 18 15 10 359 351 343 331 325 324 324 326 330 340
107 106 108 105 100 97 114 148 173 174 184 199 209 216 209 204 206 200 198 216 226 230 224 213 185 174 174 178 237 249 223 110 99 133 193 202 179 180 173 155 150 160 175 184 201 224 254 256 220 142 80 325 263 27 29 8 300 171 179 206 213 214 217 227 276 310 344 7 26 32 26 23 20 13 9 1 355 352 344 338 333 331 332 333 340
94 93 103 105 98 97 94 90 100 102 124 172 186 203 212 223 230 212 198 207 213 212 227 221 177 190 181 171 204 226 211 127 107 114 127 125 130 155 148 148 161 165 174 178 186 213 244 254 260 348 331 282 268 292 308 267 247 228 214 226 232 235 237 240 262 269 287 303 317 348 355 6 12 8 4 357 356 1 360 356 347 344 344 346 351
61 72 95 84 70 68 68 75 82 70 78 122 108 94 87 66 166 210 203 207 212 211 238 225 154 151 171 178 203 203 171 156 152 117 104 106 122 135 122 125 168 167 165 160 164 196 219 240 267 346 320 273 248 251 252 242 243 239 234 243 253 259 265 273 274 265 280 311 322 313 300 316 339 350 352 349 357 7 5 4 5 6 7 8 10
88 87 127 112 91 67 36 44 67 65 61 75 73 75 76 75 70 82 150 192 218 215 260 229 141 137 148 158 176 176 143 145 154 124 103 109 107 107 110 121 142 152 160 157 158 173 166 151 146 146 178 109 155 194 213 235 243 237 234 240 241 244 250 270 279 274 292 319 302 286 280 289 290 294 312 328 346 355 357 12 21 21 24 25 24
120 112 98 113 129 106 61 29 52 86 78 71 62 61 62 76 75 73 93 106 151 181 263 211 171 161 146 146 162 171 131 139 139 116 103 98 88 89 105 115 126 137 143 145 153 153 123 121 137 155 195 171 139 169 184 199 215 211 203 209 212 220 242 260 269 277 296 270 263 268 281 287 280 271 268 280 320 331 336 0 16 18 22 20 15
128 129 120 116 130 125 112 71 44 73 88 112 104 77 55 54 74 82 89 78 96 126 104 135 176 185 166 165 157 143 134 137 134 116 111 103 92 94 98 100 105 106 103 105 112 111 105 116 127 135 164 166 139 145 147 156 189 194 189 204 223 232 248 249 244 260 266 252 257 266 279 284 278 269 261 259 274 291 304 320 332 337 341 337 338
104 88 104 113 125 137 128 98 57 39 43 69 104 103 94 80 71 71 85 78 73 91 107 115 149 157 164 190 150 140 140 132 134 130 119 109 102 99 98 97 98 92 88 90 88 89 98 107 113 118 128 137 135 127 112 129 165 196 203 164 107 113 113 109 102 86 88 125 307 316 289 278 266 260 255 246 247 253 267 287 300 305 308 311 316
95 90 89 98 102 117 119 107 90 59 42 42 92 106 102 95 82 75 85 87 78 93 117 114 129 129 117 115 145 173 174 147 138 136 126 118 107 98 95 93 96 98 96 94 87 86 95 102 109 113 114 117 121 117 114 124 126 125 131 122 108 94 85 81 74 69 73 70 62 69 70 296 272 263 257 249 251 258 267 282 291 291 294 300 307
126 119 100 81 70 84 120 127 123 119 105 53 72 95 97 91 89 90 95 100 97 104 117 116 121 119 111 115 132 162 169 155 145 136 131 127 117 105 98 93 95 97 93 90 85 82 88 96 103 107 108 109 109 110 116 121 119 115 118 117 102 85 75 65 59 61 67 69 71 75 71 50 32 5 293 258 254 264 269 275 283 285 288 291 294
147 138 126 123 129 122 125 135 131 125 110 70 65 83 98 94 91 95 98 99 102 109 118 119 119 113 113 125 129 137 154 155 150 140 135 133 125 117 108 99 99 98 92 93 93 88 86 87 92 98 101 101 99 97 99 106 107 104 107 105 95 88 82 71 65 64 64 68 69 64 61 54 47 48 49 64 158 242 264 265 274 287 290 286 285
166 160 152 152 165 152 106 116 127 123 113 101 91 89 96 99 93 93 95 93 96 103 107 109 118 115 107 112 115 113 124 132 145 148 141 134 126 121 116 108 106 106 103 102 99 91 86 82 85 94 96 93 95 94 93 98 102 99 96 92 88 83 76 71 65 61 62 67 64 47 39 34 28 29 30 32 37 324 306 290 290 301 301 293 291
162 151 142 135 135 122 114 122 127 125 119 113 107 100 101 104 98 92 95 96 99 103 103 102 102 100 94 97 105 101 103 114 131 142 141 135 128 122 121 118 115 117 114 106 97 85 78 73 72 88 96 94 94 94 94 93 92 89 84 80 78 74 67 61 52 47 48 48 38 20 6 1 359 358 354 345 337 323 312 305 299 296 293 292 292
144 130 129 128 120 114 121 129 131 132 126 113 102 97 104 111 108 104 105 106 109 111 110 105 98 94 90 89 92 95 104 112 121 131 136 133 127 123 126 125 120 121 121 116 110 101 92 84 79 83 85 88 90 89 86 84 82 78 72 70 66 61 54 46 39 32 28 24 16 9 3 358 356 356 353 347 341 335 329 321 312 300 291 288 285
149 137 136 139 134 124 117 114 120 130 131 125 118 111 109 112 110 109 109 108 108 111 115 114 109 106 107 103 96 91 97 103 113 128 133 129 126 128 134 133 127 127 123 117 116 112 109 108 114 102 73 73 78 77 74 72 71 68 64 65 58 53 49 37 32 27 21 19 15 11 7 3 0 359 356 353 348 342 338 332 325 316 305 298 294
165 160 155 144 134 128 119 111 111 115 120 127 128 123 115 110 108 108 109 107 102 104 113 117 112 108 111 117 116 109 103 100 107 121 128 131 133 133 133 133 138 141 127 115 115 114 116 121 118 80 62 65 63 69 79 72 65 64 62 62 53 45 43 34 29 26 20 16 13 10 7 3 360 357 354 351 347 341 337 334 330 325 317 311 307
185 180 166 147 138 136 131 121 115 113 113 116 120 119 113 110 110 110 110 108 105 104 110 115 111 105 105 112 121 122 119 119 121 121 124 130 131 129 131 135 141 143 129 116 119 122 122 122 106 63 41 54 55 59 65 56 53 60 54 47 41 33 30 27 23 21 18 14 11 8 4 1 357 354 352 348 344 339 334 331 329 327 324 320 316
193 189 176 156 147 137 125 122 119 112 108 106 107 109 109 109 108 107 108 108 109 108 110 113 109 105 106 109 115 119 122 129 131 129 128 130 130 117 123 143 145 143 136 124 123 128 123 111 113 91 39 45 53 58 47 24 14 28 40 31 19 19 17 14 14 12 11 7 3 359 356 353 349 345 343 341 339 336 333 330 329 327 326 325 323
184 187 179 158 145 131 122 121 119 113 109 107 103 102 103 105 104 104 104 103 104 104 105 108 105 101 100 98 98 101 111 127 129 125 124 130 139 112 101 119 116 137 148 137 127 134 131 115 109 82 65 67 62 55 35 16 4 9 30 26 11 15 15 15 21 20 17 11 3 358 351 345 342 338 335 333 330 328 327 325 323 323 322 322 320
181 179 170 157 144 132 126 121 116 114 114 110 107 104 100 101 103 101 101 100 100 100 98 100 101 103 102 96 91 86 90 106 114 117 117 115 126 115 94 107 87 105 155 152 134 139 151 145 137 126 119 112 64 23 14 19 6 356 26 33 20 22 31 31 35 34 28 19 11 5 358 351 343 337 332 328 325 323 322 320 318 317 315 314 314
183 175 168 163 149 140 136 131 126 122 120 118 115 114 109 106 107 103 99 101 104 102 101 101 99 102 105 102 100 96 93 93 92 102 110 106 109 100 89 108 84 81 140 149 135 141 153 145 139 142 143 126 59 31 5 12 18 12 28 28 18 17 22 22 24 25 22 16 12 8 5 360 353 346 339 331 325 321 318 316 314 312 311 310 309
183 178 174 169 161 157 150 145 142 136 133 131 128 127 123 120 120 111 102 102 110 108 110 115 110 107 109 109 111 111 110 105 91 89 94 87 94 94 88 105 90 74 107 126 125 138 136 124 137 146 130 130 131 8 353 10 23 17 5 12 10 360 356 2 5 5 4 5 6 5 5 5 0 355 350 342 335 329 323 318 313 311 309 307 305
182 179 178 176 174 172 166 164 162 156 154 151 148 148 137 133 136 129 124 124 126 124 120 120 122 124 120 112 117 117 115 117 119 122 113 95 106 113 105 110 111 100 98 82 90 118 124 132 168 159 109 130 189 255 337 13 27 39 349 353 356 341 339 346 349 350 350 350 352 355 358 0 1 1 357 351 345 337 330 323 318 315 310 308 306
183 179 182 184 178 178 179 179 177 174 175 176 175 172 162 161 165 159 161 156 145 151 122 106 129 166 157 145 136 136 137 138 145 155 137 117 119 135 131 132 136 129 123 107 91 113 113 104 151 165 125 109 151 242 328 354 16 37 132 357 14 350 320 326 335 343 343 340 341 343 345 346 350 355 356 353 350 344 336 327 321 318 314 311 308
183 178 188 190 179 180 187 187 189 190 190 192 192 189 190 193 194 202 217 220 218 220 166 148 221 265 255 258 261 210 194 189 178 173 153 128 110 139 146 154 165 148 137 122 102 126 135 97 127 174 223 51 116 39 313 325 3 9 16 50 64 49 315 323 333 338 336 334 334 335 335 336 339 345 348 349 349 346 341 334 326 321 317 313 310
183 179 194 193 180 186 190 187 195 198 198 203 203 202 210 214 217 233 244 243 241 236 213 207 226 249 252 258 268 255 242 230 174 158 165 144 129 147 156 160 174 172 162 143 122 138 160 138 153 199 247 292 171 350 337 213 316 319 244 264 312 275 295 330 333 327 328 332 332 328 327 329 333 338 341 342 343 342 340 337 335 330 325 321 316
183 184 200 195 187 197 196 188 196 203 208 216 211 210 224 226 223 238 244 243 244 229 228 242 240 246 252 235 232 250 256 216 180 183 188 169 162 173 174 169 173 177 170 151 138 153 166 157 198 215 233 262 219 168 244 297 324 309 241 247 251 240 252 300 321 324 327 331 327 322 322 325 328 331 334 335 337 338 336 333 333 332 330 330 326
188 193 204 197 192 201 199 194 204 212 221 230 218 213 224 229 229 237 234 234 246 240 238 252 253 257 265 247 233 243 241 211 207 217 222 216 210 205 197 199 203 208 217 174 166 185 183 174 197 217 232 264 238 232 269 293 316 301 256 236 232 249 277 301 314 320 321 319 317 316 316 315 317 322 326 329 331 333 332 330 329 329 327 328 328
197 204 207 199 201 206 202 204 214 218 221 225 222 214 213 221 236 248 246 246 257 252 241 242 238 240 246 238 230 225 214 217 228 237 243 249 253 235 217 217 223 235 259 247 193 187 190 201 249 247 246 264 268 277 285 274 254 252 256 255 265 283 293 298 308 316 312 299 298 302 302 303 309 316 321 324 327 329 328 323 322 322 322 323 325
207 213 209 205 215 217 213 218 225 225 224 227 232 229 218 226 243 255 255 251 248 243 243 249 251 252 253 248 241 228 215 221 234 254 267 263 260 248 231 229 235 243 254 236 196 201 232 238 261 272 264 266 284 294 288 269 262 266 273 277 280 285 290 298 309 316 306 296 298 300 302 305 310 315 318 321 323 324 320 317 317 319 320 320 321
210 216 212 210 220 223 222 225 227 229 231 236 241 236 226 234 250 260 261 256 256 264 273 271 265 263 262 255 249 244 235 232 241 261 268 256 250 248 245 248 254 259 260 232 196 207 232 232 240 272 266 257 275 290 279 270 283 287 285 284 283 286 294 302 308 306 298 296 298 300 305 309 312 314 316 317 319 320 319 316 315 315 315 315 316
211 219 218 217 220 225 229 230 232 234 236 238 239 234 231 236 246 258 265 265 271 279 284 283 275 269 265 255 248 243 235 236 245 256 256 244 233 235 242 254 260 263 267 258 234 229 236 236 236 252 266 264 265 268 264 260 263 268 275 282 286 291 297 299 298 298 298 298 298 301 305 309 312 313 314 316 318 320 315 308 306 306 308 310 310
216 220 221 220 221 227 233 234 237 242 243 244 245 244 246 246 246 255 262 264 271 276 277 281 278 269 264 255 245 234 220 221 231 238 239 228 223 227 231 241 251 256 261 265 263 258 257 256 252 249 255 261 261 259 259 261 263 265 271 279 286 292 295 295 294 295 297 299 302 305 307 309 311 314 316 318 318 316 311 308 306 306 307 307 306
222 224 227 227 227 233 240 240 241 245 249 254 256 253 252 252 252 256 260 263 269 271 270 272 266 255 249 238 226 215 200 202 211 216 220 215 215 225 232 239 247 252 256 259 260 259 259 261 260 255 253 256 258 260 262 265 268 271 275 280 286 292 295 296 295 296 299 303 306 308 308 310 314 317 317 317 316 315 314 310 307 307 307 304 302
226 230 233 236 236 239 244 246 246 249 254 258 260 261 262 263 262 261 261 261 258 248 244 241 210 204 200 184 185 189 187 201 206 201 206 213 214 225 238 247 251 254 258 259 259 258 255 255 256 258 259 261 262 266 270 273 275 279 284 287 292 295 296 296 296 298 303 309 313 312 310 312 315 313 308 308 309 309 307 302 300 303 304 301 301
229 233 235 238 240 242 247 252 254 257 260 261 263 267 272 270 264 257 250 238 211 184 182 170 152 158 162 152 157 178 192 204 200 186 199 229 254 260 258 258 259 264 269 266 265 265 262 260 259 258 261 265 267 269 272 275 279 285 290 294 297 298 298 298 300 302 307 311 311 306 302 302 303 298 295 295 296 296 296 297 300 305 307 307 307
233 235 238 242 246 247 251 257 260 259 259 262 266 269 269 260 248 238 225 202 184 176 172 164 163 170 167 157 171 197 208 219 217 204 215 234 251 265 274 281 280 277 277 273 267 263 261 264 266 265 266 268 269 270 273 279 285 290 294 297 299 300 300 301 301 303 303 301 295 289 287 288 290 290 290 291 292 293 295 299 306 312 313 308 306
234 239 245 249 251 251 251 257 263 262 259 260 261 258 248 234 225 222 212 191 180 184 183 179 184 189 179 170 183 203 211 222 232 229 232 238 231 230 251 277 284 280 278 283 279 269 266 270 272 272 271 270 271 275 280 285 291 294 297 299 300 300 302 304 305 305 301 297 295 292 289 291 294 294 292 290 292 297 301 306 312 315 311 307 305
250 257 261 256 255 256 254 252 255 257 255 250 241 234 225 219 222 220 202 179 183 201 204 200 200 200 194 186 193 208 214 221 234 238 245 253 245 231 228 245 266 273 278 289 291 284 278 274 275 277 278 277 278 280 284 289 293 296 299 302 304 306 309 312 315 313 304 300 301 296 293 297 299 298 297 296 295 296 300 304 303 299 304 311 310
282 274 273 264 252 247 239 230 229 234 236 226 219 222 222 222 226 215 189 179 198 207 209 215 212 208 207 204 205 216 224 231 243 248 251 254 247 237 226 219 235 257 268 275 279 279 278 278 280 284 285 284 283 284 286 289 294 300 304 307 308 311 313 317 322 319 309 306 303 291 290 295 296 296 298 300 299 295 293 294 292 286 287 293 294